"startDT [UTC]","vpos","CH4 [ppm]","stdev(CH4) [ppm]","CO2 [ppm]","stdev(CO2) [ppm]","H2O_reported [%]","stdev(H2O_reported)","CavityPressure [torr]","CavityTemp [C]","OutletValve","CH4_dry [ppm]","CO2_dry [ppm]","DasTemp [C]","EtalonTemp [C]","WarmBoxTemp [C]","MPVPosition","T_ECpre [C]","T_EC1 [C]","T_EC2 [C]","p_inlet [hPa]","p_in [hPa]","p_out [hPa]","T_inlet [C]","RH_inlet [%]","dwpt_inlet [C]","T_vent [C]","RH_vent [%]","dwpt_vent [C]","flow_vent [l min-1]","flow_inlet [l min-1]","dwpt_sample [C]","T_room [C]"
2016-01-19 00:00:00,3.0,1.88273,0.01918,399.328,2.560,0.0091,0.0101,139.990,45.000,31578.67496,1.88479,399.506,32.188,45.071,45.000,0.00,0.08,-272.76,-272.82,-2,502,-965,18.1,1.2,-36.8,18.4,1.3,-36.1,5.73,1.78,-19.1,24.7
2016-01-19 00:01:00,3.0,1.87636,0.00027,397.161,0.069,0.0019,0.0016,139.999,45.000,31570.75725,1.87640,397.171,32.165,45.070,45.000,0.00,0.08,-272.76,-272.81,-2,502,-965,18.1,1.3,-36.7,18.4,1.3,-36.1,5.73,1.88,-19.1,24.7
2016-01-19 00:02:00,3.0,1.87617,0.00028,397.423,0.119,0.0024,0.0024,140.000,45.000,31567.95258,1.87622,397.429,32.132,45.070,45.000,0.00,0.08,-272.76,-272.82,-3,502,-965,18.1,1.3,-36.6,18.4,1.3,-35.9,5.73,1.90,-19.1,24.8
2016-01-19 00:03:00,3.0,1.87621,0.00041,397.625,0.034,0.0025,0.0021,139.999,45.000,31566.35474,1.87625,397.635,32.125,45.071,45.000,0.00,0.08,-272.76,-272.81,-3,502,-965,18.1,1.3,-36.7,18.3,1.3,-35.9,5.73,1.93,-19.1,24.8
2016-01-19 00:04:00,3.0,1.87611,0.00036,397.658,0.026,0.0019,0.0020,139.999,45.000,31565.53433,1.87614,397.668,32.121,45.071,45.000,0.00,0.08,-272.76,-272.80,-3,502,-965,18.1,1.3,-36.6,18.4,1.3,-35.9,5.73,1.95,-19.1,24.7
2016-01-19 00:05:00,3.0,1.87618,0.00027,397.655,0.029,0.0016,0.0020,139.999,45.000,31567.13593,1.87621,397.663,32.116,45.071,45.000,0.00,0.08,-272.76,-272.81,-3,502,-965,18.1,1.3,-36.6,18.4,1.3,-35.9,5.73,1.97,-19.1,24.7
2016-01-19 00:06:00,3.0,1.87615,0.00040,397.617,0.027,0.0007,0.0017,139.999,45.000,31567.85430,1.87616,397.621,32.097,45.071,45.000,0.00,0.08,-272.76,-272.82,-3,503,-965,18.1,1.3,-36.6,18.4,1.3,-35.9,5.73,1.97,-19.1,24.7
2016-01-19 00:07:00,3.0,1.87603,0.00031,397.619,0.029,0.0006,0.0016,140.002,45.000,31570.43180,1.87605,397.621,32.086,45.071,45.000,0.00,0.08,-272.76,-272.81,-2,503,-965,18.2,1.3,-36.6,18.4,1.3,-35.8,5.73,1.96,-19.1,24.7
2016-01-19 00:08:00,3.0,1.87603,0.00027,397.624,0.030,0.0010,0.0018,139.999,45.000,31570.69733,1.87604,397.628,32.067,45.071,45.000,0.00,0.08,-272.76,-272.81,-2,503,-965,18.2,1.3,-36.6,18.4,1.3,-35.8,5.73,1.95,-19.1,24.7
2016-01-19 00:09:00,3.0,1.87615,0.00035,397.612,0.034,0.0008,0.0024,139.999,45.000,31570.93410,1.87615,397.617,32.060,45.071,45.000,0.00,0.08,-272.76,-272.82,-2,504,-965,18.2,1.3,-36.6,18.5,1.3,-35.9,5.73,1.93,-19.1,24.7
2016-01-19 00:10:00,3.0,1.87636,0.00043,397.629,0.039,0.0001,0.0017,140.001,45.000,31573.04586,1.87634,397.629,32.037,45.071,45.000,0.00,0.08,-272.76,-272.81,-3,504,-965,18.2,1.3,-36.6,18.5,1.3,-35.9,5.73,1.90,-19.1,24.8
2016-01-19 00:11:00,3.0,1.87606,0.00048,397.636,0.039,0.0005,0.0016,140.000,45.000,31576.97915,1.87608,397.638,32.046,45.071,45.001,0.00,0.08,-272.76,-272.81,-3,504,-965,18.2,1.3,-36.6,18.5,1.3,-35.9,5.73,1.87,-19.1,24.8
2016-01-19 00:12:00,3.0,1.87631,0.00033,397.626,0.036,-0.0001,0.0013,140.001,45.000,31578.51797,1.87631,397.624,32.062,45.071,45.000,0.00,0.08,-272.77,-272.82,-3,504,-965,18.3,1.3,-36.6,18.5,1.3,-35.8,5.73,1.84,-19.1,24.8
2016-01-19 00:13:00,3.0,1.87646,0.00030,397.624,0.031,-0.0004,0.0014,140.000,45.000,31579.33442,1.87645,397.623,32.063,45.071,45.000,0.00,0.08,-272.76,-272.81,-3,505,-965,18.3,1.2,-36.8,18.5,1.3,-36.0,5.73,1.82,-19.1,24.8
2016-01-19 00:14:00,3.0,1.87635,0.00026,397.627,0.025,0.0001,0.0016,140.001,45.000,31581.52478,1.87635,397.628,32.065,45.071,45.000,0.00,0.08,-272.75,-272.81,-3,505,-965,18.4,1.2,-36.7,18.6,1.3,-36.0,5.73,1.83,-19.1,24.8
2016-01-19 00:15:00,3.0,1.87623,0.00030,397.638,0.028,-0.0006,0.0015,139.999,45.000,31583.16799,1.87623,397.635,32.075,45.071,45.000,0.00,0.08,-272.76,-272.81,-3,505,-965,18.4,1.2,-36.7,18.6,1.3,-36.0,5.73,1.87,-19.1,24.8
2016-01-19 00:16:00,3.0,1.87620,0.00043,397.616,0.033,0.0005,0.0021,139.999,45.000,31586.41202,1.87621,397.617,32.090,45.070,45.000,0.00,0.08,-272.76,-272.82,-2,506,-965,18.4,1.2,-36.7,18.6,1.3,-36.0,5.73,1.84,-19.1,24.8
2016-01-19 00:17:00,3.0,1.87616,0.00042,397.644,0.030,-0.0009,0.0019,140.001,45.000,31588.55984,1.87615,397.641,32.068,45.070,45.000,0.00,0.08,-272.75,-272.81,-3,506,-965,18.5,1.2,-36.7,18.7,1.3,-35.9,5.73,1.89,-19.1,24.8
2016-01-19 00:18:00,3.0,1.87639,0.00034,397.662,0.035,-0.0003,0.0021,139.999,45.000,31586.79380,1.87639,397.661,32.072,45.070,45.000,0.00,0.08,-272.76,-272.81,-3,506,-965,18.5,1.2,-36.7,18.7,1.3,-35.9,5.73,1.90,-19.1,24.9
2016-01-19 00:19:00,3.0,1.87638,0.00026,397.625,0.025,-0.0001,0.0017,140.000,45.000,31590.53735,1.87637,397.624,32.069,45.070,45.000,0.00,0.08,-272.76,-272.82,-3,506,-965,18.5,1.2,-36.7,18.7,1.3,-36.0,5.73,1.92,-19.1,24.9
2016-01-19 00:20:00,0.0,1.92383,0.01887,404.063,2.542,0.0220,0.0122,140.003,45.000,31646.90168,1.92238,404.040,32.064,45.070,45.000,0.00,0.08,-272.75,-272.81,-6,515,-965,18.6,1.2,-36.9,18.7,1.3,-35.9,5.73,2.21,-19.1,24.9
2016-01-19 00:21:00,0.0,1.93161,0.00034,405.159,0.035,0.0307,0.0019,140.000,45.000,31659.71249,1.93220,405.310,32.063,45.070,45.000,0.00,0.08,-272.75,-272.81,-5,515,-965,18.6,1.2,-36.8,18.7,1.3,-35.9,5.73,2.18,-19.1,24.9
2016-01-19 00:22:00,0.0,1.93176,0.00039,405.145,0.033,0.0305,0.0013,140.002,45.000,31663.39430,1.93234,405.294,32.063,45.071,45.000,0.00,0.08,-272.76,-272.81,-3,516,-965,18.6,1.2,-36.8,18.7,1.3,-36.1,5.73,2.07,-19.1,24.9
2016-01-19 00:23:00,0.0,1.93201,0.00035,405.150,0.036,0.0306,0.0019,139.997,45.000,31664.10912,1.93259,405.299,32.062,45.071,45.000,0.00,0.08,-272.76,-272.81,-4,516,-965,18.6,1.2,-36.8,18.8,1.3,-36.0,5.73,1.94,-19.1,24.9
2016-01-19 00:24:00,0.0,1.93168,0.00026,405.133,0.041,0.0310,0.0017,140.001,45.000,31669.56397,1.93226,405.283,32.064,45.071,45.000,0.00,0.08,-272.75,-272.81,-5,517,-965,18.6,1.2,-36.8,18.8,1.3,-35.9,5.73,1.88,-19.1,24.9
2016-01-19 00:25:00,0.0,1.93176,0.00022,405.136,0.025,0.0308,0.0015,139.998,45.000,31669.48497,1.93235,405.287,32.063,45.071,45.000,0.00,0.08,-272.75,-272.82,-5,517,-965,18.6,1.2,-36.8,18.8,1.3,-36.0,5.73,1.94,-19.1,24.9
2016-01-19 00:26:00,0.0,1.93222,0.00034,405.155,0.030,0.0311,0.0022,140.000,45.000,31672.95842,1.93280,405.306,32.059,45.071,45.000,0.00,0.08,-272.77,-272.82,-5,517,-965,18.6,1.2,-36.8,18.8,1.3,-36.0,5.73,2.07,-19.1,24.9
2016-01-19 00:27:00,0.0,1.93210,0.00046,405.153,0.033,0.0310,0.0017,139.999,45.000,31673.23464,1.93271,405.305,32.020,45.071,45.000,0.00,0.08,-272.76,-272.81,-3,517,-965,18.7,1.2,-36.7,18.8,1.3,-36.0,5.73,2.17,-19.1,24.9
2016-01-19 00:28:00,0.0,1.93167,0.00041,405.140,0.030,0.0309,0.0019,140.003,45.000,31676.08993,1.93225,405.290,32.005,45.071,45.000,0.00,0.08,-272.75,-272.80,-4,517,-965,18.6,1.2,-36.8,18.9,1.3,-36.0,5.73,2.16,-19.1,24.9
2016-01-19 00:29:00,0.0,1.93154,0.00038,405.137,0.042,0.0312,0.0015,139.998,45.000,31676.85217,1.93215,405.291,32.000,45.071,45.000,0.00,0.08,-272.77,-272.82,-5,517,-965,18.7,1.2,-36.8,18.8,1.3,-36.0,5.73,2.05,-19.1,24.9
2016-01-19 00:30:00,0.0,1.93175,0.00040,405.201,0.085,0.0312,0.0011,140.001,45.000,31678.39293,1.93232,405.348,32.000,45.071,45.000,0.00,0.08,-272.76,-272.81,-5,517,-965,18.6,1.2,-36.8,18.9,1.3,-36.0,5.73,1.93,-19.1,24.9
2016-01-19 00:31:00,0.0,1.93146,0.00037,405.298,0.028,0.0316,0.0016,140.001,45.000,31681.04088,1.93207,405.452,32.000,45.071,45.000,0.00,0.08,-272.75,-272.80,-4,517,-965,18.6,1.2,-36.7,18.9,1.3,-35.8,5.73,1.89,-19.1,24.9
2016-01-19 00:32:00,0.0,1.93129,0.00040,405.322,0.042,0.0309,0.0010,139.999,45.000,31679.38446,1.93188,405.472,32.000,45.071,45.000,0.00,0.08,-272.75,-272.82,-3,517,-965,18.6,1.2,-36.8,18.9,1.3,-35.9,5.73,1.95,-19.1,24.9
2016-01-19 00:33:00,0.0,1.93137,0.00037,405.353,0.061,0.0308,0.0020,139.998,45.000,31679.47583,1.93195,405.504,32.000,45.071,45.000,0.00,0.08,-272.76,-272.82,-4,518,-965,18.6,1.2,-36.8,18.9,1.3,-36.1,5.73,2.07,-19.1,24.9
2016-01-19 00:34:00,0.0,1.93105,0.00046,405.238,0.041,0.0314,0.0017,140.001,45.000,31681.07987,1.93165,405.393,32.000,45.071,45.000,0.00,0.08,-272.75,-272.81,-5,518,-965,18.6,1.2,-36.6,18.8,1.3,-35.8,5.73,2.16,-19.1,24.9
2016-01-19 00:35:00,0.0,1.93102,0.00028,405.196,0.026,0.0320,0.0016,140.001,45.000,31680.67446,1.93166,405.352,32.000,45.071,45.000,0.00,0.08,-272.76,-272.81,-5,517,-965,18.6,1.2,-36.6,18.8,1.3,-35.9,5.73,2.16,-19.1,24.9
2016-01-19 00:36:00,0.0,1.93119,0.00032,405.210,0.025,0.0311,0.0017,140.000,45.000,31681.16078,1.93176,405.360,32.000,45.071,45.000,0.00,0.08,-272.76,-272.81,-5,517,-965,18.5,1.2,-36.7,18.8,1.3,-35.9,5.73,2.07,-19.1,24.9
2016-01-19 00:37:00,0.0,1.93097,0.00048,405.215,0.036,0.0307,0.0013,139.998,45.000,31680.61946,1.93157,405.364,32.000,45.070,45.000,0.00,0.08,-272.76,-272.80,-3,517,-965,18.5,1.2,-36.7,18.8,1.3,-35.8,5.73,1.94,-19.1,24.9
2016-01-19 00:38:00,0.0,1.93117,0.00045,405.258,0.030,0.0303,0.0017,139.999,45.000,31681.96805,1.93172,405.405,32.001,45.070,45.000,0.00,0.08,-272.75,-272.80,-4,518,-965,18.5,1.2,-36.8,18.8,1.3,-35.8,5.73,1.89,-19.1,24.9
2016-01-19 00:39:00,0.0,1.93123,0.00033,405.221,0.030,0.0317,0.0018,139.999,45.000,31681.03398,1.93183,405.375,32.004,45.070,45.000,0.00,0.08,-272.76,-272.82,-5,518,-965,18.5,1.2,-36.7,18.8,1.3,-35.9,5.73,1.94,-19.1,24.9
2016-01-19 00:40:00,0.0,1.93133,0.00037,405.222,0.036,0.0310,0.0017,139.999,45.000,31681.50616,1.93192,405.373,32.000,45.071,45.000,0.00,0.08,-272.76,-272.81,-5,518,-965,18.5,1.2,-36.7,18.8,1.3,-35.8,5.73,2.05,-19.1,24.9
2016-01-19 00:41:00,0.0,1.93155,0.00033,405.231,0.026,0.0318,0.0015,139.998,45.000,31679.78728,1.93211,405.385,31.999,45.071,45.000,0.00,0.08,-272.75,-272.81,-4,517,-965,18.5,1.2,-36.6,18.7,1.3,-35.9,5.73,2.16,-19.1,24.9
2016-01-19 00:42:00,0.0,1.93155,0.00037,405.252,0.038,0.0311,0.0015,139.997,45.000,31680.55821,1.93217,405.403,31.998,45.071,45.000,0.00,0.08,-272.76,-272.81,-3,518,-965,18.5,1.2,-36.7,18.7,1.3,-35.9,5.73,2.16,-19.1,24.9
2016-01-19 00:43:00,0.0,1.93159,0.00034,405.246,0.040,0.0311,0.0014,139.999,45.000,31680.96307,1.93218,405.398,31.976,45.071,45.000,0.00,0.08,-272.76,-272.81,-4,518,-965,18.4,1.2,-36.7,18.7,1.3,-35.9,5.73,2.08,-19.1,24.9
2016-01-19 00:44:00,0.0,1.93133,0.00039,405.243,0.031,0.0310,0.0017,140.001,45.000,31684.14127,1.93193,405.394,31.958,45.071,45.000,0.00,0.08,-272.76,-272.80,-5,518,-965,18.5,1.2,-36.7,18.7,1.3,-35.9,5.73,1.95,-19.1,24.9
2016-01-19 00:45:00,0.0,1.93141,0.00043,405.204,0.026,0.0313,0.0018,140.000,45.000,31684.91193,1.93198,405.357,31.941,45.071,45.000,0.00,0.08,-272.75,-272.81,-5,518,-965,18.4,1.2,-36.7,18.7,1.3,-35.9,5.73,1.89,-19.1,24.9
2016-01-19 00:46:00,0.0,1.93195,0.00045,405.211,0.031,0.0309,0.0021,140.001,45.000,31684.86620,1.93256,405.364,31.939,45.071,45.000,0.00,0.08,-272.76,-272.82,-5,517,-965,18.4,1.2,-36.8,18.7,1.3,-35.9,5.73,1.93,-19.1,24.9
2016-01-19 00:47:00,0.0,1.93176,0.00034,405.187,0.032,0.0326,0.0021,139.999,45.000,31684.44412,1.93237,405.343,31.937,45.071,45.000,0.00,0.08,-272.75,-272.82,-3,517,-965,18.4,1.2,-36.7,18.7,1.3,-35.9,5.73,2.04,-19.1,24.9
2016-01-19 00:48:00,0.0,1.93180,0.00033,405.220,0.043,0.0316,0.0015,140.000,45.000,31683.85752,1.93239,405.372,31.939,45.071,45.000,0.00,0.08,-272.75,-272.82,-4,518,-965,18.4,1.2,-36.7,18.7,1.3,-35.9,5.73,2.15,-19.1,24.9
2016-01-19 00:49:00,0.0,1.93242,0.00047,405.223,0.039,0.0319,0.0013,139.999,45.000,31681.32231,1.93303,405.379,31.943,45.071,45.000,0.00,0.08,-272.76,-272.81,-5,518,-965,18.4,1.2,-36.8,18.7,1.3,-36.0,5.73,2.17,-19.1,24.9
2016-01-19 00:50:00,0.0,1.93229,0.00032,405.238,0.031,0.0307,0.0021,139.999,45.000,31679.62707,1.93286,405.387,31.961,45.071,45.000,0.00,0.08,-272.76,-272.81,-5,517,-965,18.3,1.2,-37.0,18.7,1.3,-36.2,5.73,2.10,-19.1,24.9
2016-01-19 00:51:00,0.0,1.93216,0.00036,405.252,0.031,0.0308,0.0015,139.999,45.000,31677.67528,1.93276,405.403,31.961,45.071,45.000,0.00,0.08,-272.76,-272.81,-5,517,-965,18.3,1.2,-37.0,18.6,1.3,-36.2,5.73,1.97,-19.1,24.9
2016-01-19 00:52:00,0.0,1.93197,0.00039,405.229,0.033,0.0308,0.0013,140.001,45.000,31680.13010,1.93254,405.379,31.997,45.071,45.000,0.00,0.08,-272.77,-272.81,-4,517,-965,18.3,1.2,-37.0,18.6,1.3,-36.2,5.73,1.90,-19.1,24.9
2016-01-19 00:53:00,0.0,1.93236,0.00044,405.238,0.023,0.0306,0.0012,140.001,45.000,31679.70805,1.93293,405.387,31.997,45.070,44.999,0.00,0.08,-272.76,-272.82,-4,517,-965,18.3,1.2,-37.0,18.6,1.3,-36.2,5.73,1.91,-19.1,24.9
2016-01-19 00:54:00,0.0,1.93256,0.00036,405.321,0.040,0.0310,0.0017,139.999,45.000,31677.27887,1.93316,405.469,32.000,45.070,44.999,0.00,0.08,-272.75,-272.81,-5,517,-965,18.3,1.2,-37.1,18.6,1.3,-36.2,5.73,2.02,-19.1,24.9
2016-01-19 00:55:00,0.0,1.93273,0.00039,405.341,0.031,0.0306,0.0019,139.997,45.000,31675.99370,1.93331,405.490,32.000,45.070,44.999,0.00,0.08,-272.75,-272.81,-5,517,-965,18.3,1.2,-37.2,18.6,1.3,-36.2,5.73,2.14,-19.1,24.8
2016-01-19 00:56:00,0.0,1.93256,0.00030,405.266,0.042,0.0305,0.0021,140.002,45.000,31679.06384,1.93314,405.415,31.998,45.070,44.999,0.00,0.08,-272.76,-272.81,-5,517,-965,18.3,1.2,-37.2,18.6,1.3,-36.3,5.73,2.18,-19.2,24.9
2016-01-19 00:57:00,0.0,1.93224,0.00036,405.242,0.041,0.0299,0.0018,139.999,45.000,31677.48958,1.93282,405.389,31.986,45.070,45.000,0.00,0.08,-272.77,-272.81,-3,517,-965,18.2,1.2,-37.2,18.6,1.3,-36.4,5.73,2.11,-19.1,24.8
2016-01-19 00:58:00,0.0,1.93493,0.00228,405.302,0.057,0.0304,0.0016,139.998,45.000,31676.98895,1.93528,405.446,31.962,45.070,45.000,0.00,0.08,-272.76,-272.80,-3,517,-965,18.2,1.2,-37.3,18.6,1.3,-36.4,5.73,1.98,-19.1,24.8
2016-01-19 00:59:00,0.0,1.93966,0.00172,405.366,0.039,0.0298,0.0014,139.999,45.000,31675.88805,1.94033,405.512,31.958,45.071,45.000,0.00,0.08,-272.75,-272.81,-5,517,-965,18.2,1.2,-37.3,18.6,1.3,-36.5,5.73,1.90,-19.1,24.8
2016-01-19 01:00:00,0.0,1.93478,0.00099,405.344,0.024,0.0295,0.0014,140.002,45.000,31678.54216,1.93531,405.488,31.943,45.071,45.000,0.00,0.08,-272.75,-272.82,-5,517,-965,18.2,1.2,-37.3,18.5,1.3,-36.5,5.73,1.91,-19.2,24.8
2016-01-19 01:01:00,0.0,1.93618,0.00026,405.318,0.027,0.0301,0.0015,139.999,45.000,31676.69814,1.93676,405.464,31.938,45.071,45.000,0.00,0.08,-272.75,-272.82,-4,517,-965,18.2,1.2,-37.3,18.5,1.3,-36.4,5.73,2.02,-19.2,24.8
2016-01-19 01:02:00,0.0,1.93626,0.00038,405.326,0.037,0.0305,0.0020,140.002,45.000,31676.38155,1.93682,405.476,31.936,45.071,45.000,0.00,0.08,-272.76,-272.81,-3,517,-965,18.2,1.2,-37.3,18.5,1.3,-36.5,5.73,2.14,-19.2,24.8
2016-01-19 01:03:00,0.0,1.93635,0.00061,405.311,0.032,0.0305,0.0020,140.001,45.000,31675.37192,1.93697,405.459,31.938,45.071,45.000,0.00,0.08,-272.76,-272.81,-3,517,-965,18.2,1.2,-37.3,18.5,1.2,-36.5,5.73,2.18,-19.2,24.8
2016-01-19 01:04:00,0.0,1.93567,0.00047,405.309,0.029,0.0289,0.0019,139.999,45.000,31675.68971,1.93625,405.450,31.937,45.071,45.000,0.00,0.08,-272.76,-272.81,-4,517,-965,18.2,1.2,-37.5,18.5,1.2,-36.7,5.73,2.11,-19.2,24.8
2016-01-19 01:05:00,0.0,1.93446,0.00058,405.314,0.032,0.0295,0.0015,139.999,45.000,31673.24464,1.93505,405.459,31.937,45.071,45.000,0.00,0.08,-272.75,-272.81,-5,517,-965,18.2,1.1,-37.6,18.5,1.2,-36.7,5.73,1.99,-19.2,24.8
2016-01-19 01:06:00,0.0,1.93425,0.00092,405.318,0.042,0.0298,0.0018,140.002,45.000,31672.85307,1.93476,405.463,31.936,45.071,45.000,0.00,0.08,-272.75,-272.82,-4,517,-965,18.1,1.1,-37.6,18.5,1.2,-36.7,5.73,1.89,-19.2,24.7
2016-01-19 01:07:00,0.0,1.93600,0.00052,405.315,0.031,0.0290,0.0021,140.001,45.000,31672.56192,1.93656,405.457,31.917,45.071,45.000,0.00,0.08,-272.76,-272.82,-3,517,-965,18.1,1.2,-37.6,18.5,1.2,-36.7,5.73,1.91,-19.2,24.7
2016-01-19 01:08:00,0.0,1.93671,0.00029,405.331,0.034,0.0289,0.0013,139.999,45.000,31670.99690,1.93722,405.472,31.893,45.071,45.000,0.00,0.08,-272.75,-272.80,-3,517,-965,18.1,1.1,-37.7,18.4,1.2,-36.7,5.73,2.01,-19.2,24.7
2016-01-19 01:09:00,0.0,1.93626,0.00042,405.314,0.021,0.0286,0.0020,139.996,45.000,31670.56860,1.93683,405.453,31.878,45.071,45.000,0.00,0.08,-272.76,-272.81,-4,517,-965,18.1,1.1,-37.8,18.4,1.2,-36.9,5.73,2.13,-19.2,24.7
2016-01-19 01:10:00,0.0,1.93605,0.00030,405.309,0.037,0.0280,0.0019,140.001,45.000,31670.53504,1.93659,405.445,31.874,45.071,45.000,0.00,0.08,-272.77,-272.81,-5,517,-965,18.1,1.1,-37.8,18.4,1.2,-37.0,5.73,2.18,-19.2,24.7
2016-01-19 01:11:00,0.0,1.93574,0.00053,405.305,0.022,0.0287,0.0018,139.996,45.000,31667.82576,1.93633,405.446,31.878,45.071,45.000,0.00,0.08,-272.76,-272.81,-4,516,-965,18.1,1.1,-37.7,18.4,1.2,-36.9,5.73,2.11,-19.2,24.7
2016-01-19 01:12:00,0.0,1.93458,0.00035,405.317,0.028,0.0286,0.0019,139.998,45.000,31667.85706,1.93514,405.455,31.893,45.071,45.000,0.00,0.08,-272.76,-272.81,-3,517,-965,18.1,1.1,-37.8,18.4,1.2,-37.0,5.73,1.98,-19.2,24.7
2016-01-19 01:13:00,0.0,1.93451,0.00034,405.309,0.039,0.0286,0.0020,139.999,45.000,31667.32849,1.93504,405.448,31.923,45.071,45.000,0.00,0.08,-272.75,-272.82,-3,517,-965,18.1,1.1,-37.9,18.4,1.2,-36.9,5.73,1.89,-19.2,24.7
2016-01-19 01:14:00,0.0,1.93411,0.00043,405.281,0.036,0.0287,0.0020,140.001,45.000,31669.30098,1.93468,405.420,31.906,45.070,45.000,0.00,0.08,-272.75,-272.81,-5,517,-965,18.1,1.1,-37.8,18.4,1.2,-37.0,5.73,1.91,-19.2,24.7
2016-01-19 01:15:00,0.0,1.93379,0.00038,405.274,0.023,0.0290,0.0021,139.998,45.000,31668.31919,1.93432,405.415,31.896,45.070,45.000,0.00,0.08,-272.75,-272.81,-5,516,-965,18.0,1.1,-37.8,18.4,1.2,-37.0,5.73,2.03,-19.2,24.7
2016-01-19 01:16:00,0.0,1.93366,0.00041,405.268,0.044,0.0291,0.0017,140.000,45.000,31669.83463,1.93423,405.410,31.887,45.070,45.000,0.00,0.08,-272.76,-272.82,-4,516,-965,18.0,1.1,-37.9,18.4,1.2,-37.0,5.73,2.14,-19.2,24.7
2016-01-19 01:17:00,0.0,1.93373,0.00043,405.273,0.040,0.0284,0.0013,139.998,45.000,31667.62763,1.93429,405.413,31.875,45.070,45.000,0.00,0.08,-272.76,-272.82,-3,516,-965,18.0,1.1,-37.9,18.4,1.2,-37.0,5.73,2.18,-19.2,24.7
2016-01-19 01:18:00,0.0,1.93349,0.00028,405.263,0.030,0.0284,0.0023,140.000,45.000,31668.34247,1.93400,405.400,31.874,45.071,45.000,0.00,0.08,-272.76,-272.81,-3,517,-965,18.0,1.1,-37.9,18.3,1.2,-37.0,5.73,2.10,-19.2,24.7
2016-01-19 01:19:00,0.0,1.93372,0.00038,405.265,0.033,0.0284,0.0022,140.000,45.000,31668.04615,1.93429,405.404,31.874,45.071,45.000,0.00,0.08,-272.76,-272.81,-5,516,-965,18.0,1.1,-37.9,18.3,1.2,-37.0,5.73,1.97,-19.2,24.7
2016-01-19 01:20:00,0.0,1.93299,0.00043,405.229,0.040,0.0280,0.0015,139.996,45.000,31666.75487,1.93355,405.366,31.863,45.071,45.000,0.00,0.08,-272.76,-272.81,-5,516,-965,18.0,1.1,-37.9,18.3,1.2,-37.0,5.73,1.88,-19.2,24.6
2016-01-19 01:21:00,0.0,1.93261,0.00030,405.219,0.022,0.0285,0.0014,140.000,45.000,31667.66590,1.93315,405.356,31.854,45.071,45.000,0.00,0.08,-272.75,-272.81,-4,516,-964,18.0,1.1,-37.9,18.3,1.2,-37.0,5.73,1.92,-19.2,24.6
2016-01-19 01:22:00,0.0,1.93302,0.00034,405.234,0.024,0.0286,0.0015,140.000,45.000,31666.83402,1.93354,405.372,31.814,45.071,45.000,0.00,0.08,-272.75,-272.81,-3,516,-965,18.0,1.1,-37.9,18.3,1.2,-37.0,5.73,2.04,-19.3,24.6
2016-01-19 01:23:00,0.0,1.93327,0.00037,405.269,0.028,0.0279,0.0017,139.999,45.000,31665.24309,1.93379,405.405,31.812,45.071,45.000,0.00,0.08,-272.76,-272.81,-3,516,-964,18.0,1.1,-37.9,18.3,1.2,-37.0,5.73,2.15,-19.3,24.6
2016-01-19 01:24:00,0.0,1.93266,0.00042,405.256,0.022,0.0273,0.0018,139.997,45.000,31665.40168,1.93320,405.389,31.813,45.071,45.000,0.00,0.08,-272.76,-272.81,-5,516,-965,18.0,1.1,-38.0,18.3,1.2,-37.0,5.73,2.17,-19.3,24.6
2016-01-19 01:25:00,0.0,1.93300,0.00046,405.230,0.029,0.0279,0.0016,140.002,45.000,31664.93626,1.93350,405.365,31.813,45.071,45.000,0.00,0.08,-272.75,-272.81,-5,516,-965,17.9,1.1,-38.1,18.3,1.2,-37.0,5.73,2.09,-19.3,24.6
2016-01-19 01:26:00,0.0,1.93318,0.00028,405.287,0.026,0.0285,0.0016,139.997,45.000,31663.22096,1.93373,405.425,31.818,45.071,45.000,0.00,0.08,-272.76,-272.81,-4,516,-964,17.9,1.1,-38.2,18.2,1.2,-37.2,5.73,1.97,-19.3,24.6
2016-01-19 01:27:00,0.0,1.93339,0.00036,405.259,0.024,0.0282,0.0019,139.997,45.000,31663.36872,1.93396,405.397,31.824,45.071,45.000,0.00,0.08,-272.76,-272.81,-3,516,-964,18.0,1.1,-38.2,18.3,1.2,-37.3,5.73,1.89,-19.3,24.6
2016-01-19 01:28:00,0.0,1.93300,0.00041,405.236,0.026,0.0286,0.0021,139.997,45.000,31662.31580,1.93355,405.377,31.826,45.071,45.000,0.00,0.08,-272.75,-272.81,-3,516,-964,17.9,1.1,-38.1,18.3,1.2,-37.3,5.73,1.92,-19.3,24.6
2016-01-19 01:29:00,0.0,1.93251,0.00035,405.200,0.027,0.0278,0.0018,140.000,45.000,31664.12669,1.93306,405.336,31.833,45.070,45.000,0.00,0.08,-272.76,-272.82,-5,516,-964,17.9,1.1,-38.1,18.3,1.2,-37.3,5.73,2.04,-19.3,24.5
2016-01-19 01:30:00,0.0,1.93259,0.00050,405.212,0.041,0.0266,0.0013,140.000,45.000,31663.50591,1.93309,405.341,31.824,45.070,45.000,0.00,0.08,-272.76,-272.82,-5,516,-964,17.9,1.1,-38.2,18.3,1.2,-37.3,5.73,2.15,-19.3,24.6
2016-01-19 01:31:00,0.0,1.93204,0.00042,405.174,0.028,0.0282,0.0017,139.996,45.000,31661.13864,1.93260,405.312,31.854,45.070,45.000,0.00,0.08,-272.76,-272.81,-4,516,-964,17.9,1.1,-38.1,18.2,1.2,-37.3,5.73,2.17,-19.3,24.5
2016-01-19 01:32:00,0.0,1.93203,0.00033,405.207,0.037,0.0282,0.0015,139.999,45.000,31661.87245,1.93255,405.343,31.874,45.070,45.000,0.00,0.08,-272.75,-272.81,-3,516,-964,17.9,1.1,-38.2,18.2,1.2,-37.3,5.73,2.08,-19.3,24.5
2016-01-19 01:33:00,0.0,1.93194,0.00022,405.187,0.040,0.0281,0.0018,139.998,45.000,31659.40895,1.93248,405.325,31.871,45.070,45.000,0.00,0.08,-272.76,-272.81,-4,516,-964,17.9,1.1,-38.1,18.2,1.2,-37.2,5.73,1.96,-19.3,24.5
2016-01-19 01:34:00,0.0,1.93182,0.00031,405.157,0.029,0.0283,0.0014,139.999,45.000,31658.67824,1.93237,405.294,31.873,45.070,44.999,0.00,0.08,-272.76,-272.82,-5,516,-964,17.9,1.1,-38.2,18.2,1.2,-37.1,5.73,1.89,-19.3,24.5
2016-01-19 01:35:00,0.0,1.93153,0.00033,405.132,0.035,0.0285,0.0019,139.998,45.000,31658.37964,1.93207,405.272,31.836,45.070,45.000,0.00,0.08,-272.75,-272.81,-5,516,-964,17.9,1.1,-38.2,18.2,1.2,-37.2,5.73,1.92,-19.3,24.5
2016-01-19 01:36:00,0.0,1.93162,0.00031,405.144,0.025,0.0280,0.0022,139.998,45.000,31658.65244,1.93215,405.279,31.811,45.070,45.000,0.00,0.08,-272.76,-272.81,-4,516,-964,17.9,1.1,-38.2,18.2,1.2,-37.3,5.73,2.04,-19.3,24.5
2016-01-19 01:37:00,0.0,1.93162,0.00044,405.143,0.035,0.0274,0.0014,139.999,45.000,31660.56999,1.93215,405.276,31.804,45.071,45.000,0.00,0.08,-272.76,-272.82,-3,516,-964,17.9,1.1,-38.2,18.2,1.2,-37.3,5.73,2.15,-19.3,24.5
2016-01-19 01:38:00,0.0,1.93144,0.00045,405.168,0.037,0.0277,0.0019,140.000,45.000,31660.46893,1.93197,405.304,31.810,45.071,45.000,0.00,0.08,-272.76,-272.81,-3,516,-964,17.8,1.1,-38.2,18.2,1.2,-37.3,5.73,2.17,-19.3,24.5
2016-01-19 01:39:00,0.0,1.93122,0.00034,405.168,0.025,0.0278,0.0022,140.000,45.000,31661.97076,1.93178,405.303,31.839,45.071,45.000,0.00,0.08,-272.76,-272.81,-5,516,-964,17.9,1.1,-38.2,18.2,1.2,-37.3,5.73,2.08,-19.3,24.5
2016-01-19 01:40:00,0.0,1.93177,0.00050,405.191,0.038,0.0281,0.0016,139.999,45.000,31659.14738,1.93225,405.327,31.874,45.071,45.000,0.00,0.08,-272.76,-272.81,-5,516,-964,17.8,1.1,-38.2,18.2,1.2,-37.3,5.73,1.95,-19.4,24.5
2016-01-19 01:41:00,0.0,1.93224,0.00024,405.226,0.036,0.0285,0.0028,139.998,45.000,31658.55955,1.93278,405.364,31.875,45.070,45.000,0.00,0.08,-272.75,-272.81,-3,516,-964,17.8,1.1,-38.2,18.2,1.2,-37.3,5.73,1.88,-19.3,24.4
2016-01-19 01:42:00,0.0,1.93241,0.00037,405.239,0.033,0.0281,0.0020,139.999,45.000,31658.45233,1.93294,405.376,31.875,45.070,45.000,0.00,0.08,-272.75,-272.82,-3,516,-964,17.9,1.1,-38.2,18.2,1.2,-37.3,5.73,1.92,-19.3,24.5
2016-01-19 01:43:00,0.0,1.93222,0.00041,405.227,0.036,0.0278,0.0014,140.001,45.000,31659.12775,1.93278,405.362,31.875,45.070,45.000,0.00,0.08,-272.76,-272.82,-4,516,-964,17.8,1.1,-38.2,18.2,1.2,-37.3,5.73,2.05,-19.3,24.5
2016-01-19 01:44:00,0.0,1.93199,0.00040,405.211,0.027,0.0284,0.0015,139.999,45.000,31659.74590,1.93253,405.349,31.872,45.070,45.000,0.00,0.08,-272.76,-272.82,-5,516,-964,17.8,1.1,-38.2,18.1,1.2,-37.4,5.73,2.16,-19.3,24.5
2016-01-19 01:45:00,0.0,1.93146,0.00032,405.190,0.042,0.0281,0.0019,139.999,45.000,31658.93377,1.93197,405.326,31.875,45.070,45.000,0.00,0.08,-272.76,-272.81,-5,516,-964,17.8,1.1,-38.3,18.1,1.2,-37.4,5.73,2.16,-19.3,24.4